GEFSMW_500_meanwind_270.txt.gz
Wind_Speed
12 12 12 11 11 11 11 11 11 11 10 10 10 9 8 8 8 8 8 8 7 7 7 6 5 6 5 5 4 4 5 5 5 6 6 6 6 7 7 7 8 8 9
10 11 11 11 11 11 10 10 10 10 9 9 9 9 9 8 7 7 7 8 8 7 7 6 6 7 6 6 5 5 5 5 5 6 6 7 7 7 7 8 9 9 9
9 9 9 10 10 10 10 10 10 9 9 9 9 9 9 8 8 7 7 7 7 7 6 6 7 7 7 7 7 6 6 6 6 6 7 7 7 8 9 9 9 10 10
8 9 9 9 9 9 9 9 9 9 9 8 8 8 8 8 7 7 7 7 7 6 6 7 7 8 8 8 8 7 7 7 7 7 8 7 8 9 9 9 10 10 11
7 7 7 7 8 8 8 8 9 8 8 8 8 8 8 8 7 7 7 7 7 6 7 7 8 8 8 9 8 8 8 8 8 9 8 9 10 10 10 10 10 11 11
4 5 6 6 6 6 7 7 7 7 7 7 7 8 8 8 7 7 7 7 7 7 7 7 8 9 9 9 9 8 9 9 9 10 9 9 10 10 10 10 10 10 10
3 4 5 5 5 5 6 6 6 7 7 7 7 7 7 8 7 8 7 7 7 7 7 8 8 9 9 9 9 9 9 9 10 10 10 10 10 10 10 11 12 12 12
2 3 4 4 5 6 7 6 6 6 7 7 7 6 7 8 7 8 8 8 7 7 7 8 8 9 9 9 9 9 9 9 10 10 10 10 11 11 12 12 13 13 14
2 3 3 4 5 6 6 7 7 7 7 7 7 6 7 8 7 9 9 9 8 7 7 8 8 9 9 10 10 10 9 10 10 10 11 11 11 13 13 13 13 14 14
4 3 4 4 5 5 6 7 8 8 8 9 9 8 7 7 8 9 9 9 9 9 9 9 9 10 10 11 11 10 10 10 11 11 12 12 12 13 13 13 14 15 14
4 4 5 5 6 7 7 8 8 9 9 10 10 10 9 9 10 10 10 10 10 10 10 10 10 11 12 12 12 11 12 12 12 13 13 13 14 14 14 15 15 15 15
5 5 5 6 7 7 8 9 10 11 11 11 11 11 10 10 11 11 11 11 11 11 11 11 12 13 13 13 13 13 13 13 13 13 14 14 15 15 16 16 16 16 15
7 6 7 7 8 8 9 10 11 12 12 12 12 11 11 11 11 12 12 12 11 12 12 13 14 14 13 13 14 14 15 14 14 14 14 15 15 16 17 17 17 17 17
10 9 10 10 10 10 11 11 12 12 13 13 12 12 11 11 12 13 13 12 13 13 14 14 15 15 15 15 16 16 16 16 16 15 16 16 16 17 17 18 18 18 19
13 12 12 12 12 13 13 13 13 13 13 14 13 12 12 12 13 13 13 13 14 15 15 16 16 16 16 17 17 17 17 18 17 17 17 17 18 19 19 19 20 20 20
16 15 15 15 15 14 14 14 14 15 15 15 14 14 14 14 14 14 14 15 16 16 17 17 17 18 18 19 19 19 20 20 19 18 19 19 19 21 21 22 22 22 23
17 17 17 17 16 15 15 16 16 16 17 17 16 15 15 15 15 16 17 17 17 18 18 18 19 19 20 20 20 21 21 21 20 21 21 21 21 22 23 23 24 24 25
21 20 19 18 17 17 17 17 17 17 17 17 17 16 16 16 16 17 18 19 20 20 20 20 21 21 21 21 21 21 21 21 21 22 22 23 23 23 24 24 25 25 25
21 21 20 20 19 19 19 20 19 19 18 17 17 18 18 18 18 19 20 21 21 22 22 22 23 23 23 22 22 22 22 23 23 24 24 25 25 25 26 25 26 26 26
22 23 22 21 21 21 21 21 20 20 20 19 20 20 21 21 21 21 22 22 23 23 24 24 24 24 24 24 24 24 24 25 25 25 26 26 27 27 27 27 27 26 26
25 24 23 23 22 22 22 21 21 21 21 21 21 22 22 22 23 23 24 25 25 25 25 25 25 25 25 26 26 26 26 27 27 28 28 28 29 29 29 29 28 28 28
26 26 25 24 24 24 24 23 22 22 22 22 22 22 23 24 24 25 26 26 26 27 27 27 26 26 26 26 27 28 29 29 29 29 30 30 30 31 30 29 29 29 29
28 27 26 25 25 25 25 24 24 24 24 24 24 24 25 25 25 26 26 27 27 28 28 27 27 27 27 27 28 29 30 31 31 31 31 32 32 31 30 29 29 30 30
29 28 27 26 26 26 26 25 26 26 26 27 26 26 26 26 27 27 27 27 27 27 27 28 28 28 28 29 29 30 31 31 32 32 32 32 32 32 30 29 30 30 31
31 30 28 27 27 27 28 27 27 28 28 28 28 27 27 27 27 27 26 27 27 28 28 28 28 28 29 29 30 31 31 32 32 32 31 31 31 31 31 31 31 31 32
31 31 30 30 29 29 29 29 30 30 29 29 29 28 28 27 27 27 27 27 28 29 28 28 28 29 29 30 30 31 31 31 32 32 32 31 31 31 31 31 31 31 31

GEFSMW_500_meanwind_276.txt.gz
Wind_Speed
9 9 9 9 9 9 9 8 8 8 8 8 7 7 8 8 8 7 7 8 7 7 6 6 5 5 5 5 5 5 5 5 5 6 6 7 7 8 8 8 9 9 10
8 8 8 8 8 8 7 7 7 7 7 7 7 7 8 8 7 7 7 7 7 6 6 6 5 5 5 5 5 5 5 6 6 6 7 7 9 9 9 9 10 10 11
6 7 7 6 6 6 7 7 7 7 6 6 6 7 7 7 7 7 6 6 6 5 5 5 6 6 6 6 6 6 6 7 7 7 8 8 8 9 10 11 10 11 11
4 5 5 5 5 5 5 6 6 6 6 6 5 5 6 6 6 6 6 5 5 6 6 6 7 7 7 7 7 7 7 7 8 8 8 9 9 9 9 10 11 11 12
3 3 3 4 4 4 5 5 5 5 5 5 5 5 5 5 5 5 6 6 6 6 7 7 7 8 8 8 8 7 8 8 8 9 9 9 9 9 9 10 11 12 12
2 2 3 4 4 4 5 5 6 5 4 4 4 4 4 5 5 5 6 6 6 7 7 8 8 8 8 9 9 9 9 10 10 9 9 10 10 10 10 10 11 12 13
2 2 2 3 3 3 4 5 5 5 4 4 4 5 5 5 6 6 7 7 7 8 8 8 8 9 9 10 10 10 10 10 10 11 11 11 11 11 12 12 12 13 14
3 2 2 2 3 3 3 4 5 5 5 5 5 6 7 7 8 8 8 8 9 9 8 8 9 9 10 10 10 10 11 11 12 12 12 12 12 12 13 14 14 14 15
5 4 4 4 4 3 4 4 5 5 5 5 6 7 7 8 8 9 10 10 9 10 9 10 10 10 10 10 10 11 12 12 12 13 13 13 14 14 14 15 15 15 16
6 6 5 5 5 5 5 5 5 6 6 6 6 7 8 8 8 9 11 10 10 10 11 11 11 11 11 11 12 12 12 13 13 14 14 15 15 15 15 16 16 17 17
8 7 7 7 7 7 7 6 6 7 7 7 7 8 8 8 9 10 11 11 11 11 12 12 12 13 13 12 13 13 13 14 15 15 15 15 16 16 16 17 17 17 18
10 9 8 8 8 8 8 8 8 8 8 8 9 9 9 10 11 12 12 12 12 12 13 13 13 14 14 14 14 15 15 15 16 15 15 16 16 16 17 18 18 19 19
11 10 9 9 9 10 10 9 9 10 9 9 10 10 10 11 12 12 13 13 13 13 14 14 14 14 15 15 15 16 16 17 17 17 16 16 17 17 18 19 20 20 20
12 12 11 11 11 12 12 11 11 11 11 11 12 12 12 13 13 13 14 14 14 14 15 15 15 15 16 16 17 17 18 18 19 18 18 18 18 18 19 20 20 21 21
13 13 13 13 13 13 13 13 13 12 12 13 13 14 14 14 14 15 15 15 15 15 16 16 16 16 17 17 18 19 19 18 18 19 19 19 19 20 21 21 22 22 22
15 16 15 14 14 14 15 14 14 14 14 14 15 15 15 15 15 15 16 16 16 16 17 17 18 18 18 19 20 20 20 19 19 19 20 21 21 21 22 22 23 23 23
17 17 16 16 16 16 16 16 16 16 16 16 16 16 16 16 16 16 17 17 17 18 18 18 19 20 20 20 21 21 22 21 21 21 22 22 22 22 23 24 24 24 24
19 18 18 19 19 19 18 18 18 17 17 17 17 17 17 17 17 18 18 18 19 19 20 21 22 22 22 22 22 23 23 23 23 23 23 23 23 23 24 25 25 25 26
22 21 20 20 20 21 21 20 20 19 19 18 18 18 19 19 19 19 20 20 20 21 22 23 23 24 24 24 24 24 24 24 24 24 25 25 25 25 25 26 26 26 27
22 22 22 21 21 21 21 22 20 21 21 21 20 20 20 20 20 21 21 22 22 23 23 24 24 24 24 24 25 25 25 25 26 26 27 27 27 27 27 28 28 28 29
24 25 25 24 23 23 22 22 21 21 21 22 22 22 22 22 22 23 24 24 24 25 25 24 25 25 25 25 25 26 26 26 26 27 28 28 28 29 29 29 30 30 30
26 27 26 26 25 25 24 23 23 23 23 23 23 23 23 23 23 24 25 26 26 26 26 26 26 26 26 26 26 26 26 27 28 28 29 29 30 30 30 31 31 31 31
28 27 27 27 27 26 25 25 24 25 25 25 24 24 25 24 25 26 26 26 27 27 27 27 27 26 26 27 27 27 28 28 29 30 30 30 30 30 31 31 31 31 31
28 28 28 29 29 28 27 26 26 26 27 26 25 26 26 26 27 26 26 27 27 27 28 27 27 27 27 27 27 27 28 29 30 31 32 33 32 32 32 32 32 32 32
29 29 28 28 28 26 26 28 28 28 28 27 26 27 27 27 28 27 27 28 28 28 28 28 28 28 28 28 28 28 29 30 30 31 32 33 33 33 32 32 32 33 33
29 29 28 28 28 27 27 28 28 29 29 28 28 28 28 28 29 28 28 28 29 29 29 28 28 28 29 29 29 29 29 30 30 31 31 32 32 32 32 32 32 32 32

GEFSMW_500_meanwind_282.txt.gz
Wind_Speed
7 6 6 6 6 6 6 6 5 5 4 5 5 5 5 5 4 4 4 5 5 5 4 4 4 4 4 4 3 4 4 5 5 6 7 7 7 8 8 8 8 9 9
5 5 5 5 5 5 5 6 5 4 4 4 4 4 4 4 4 4 4 4 4 4 4 4 5 5 5 5 5 5 6 6 6 7 7 8 9 9 8 8 9 10 10
4 4 4 4 4 4 5 5 5 4 4 3 3 3 3 3 4 4 4 4 4 4 4 5 5 6 6 6 5 6 6 6 7 8 8 8 9 9 9 9 10 10 10
2 3 3 3 3 4 4 4 5 5 4 3 3 3 3 3 3 3 3 4 4 5 5 6 7 7 7 7 7 7 7 7 8 8 9 9 9 10 10 10 11 11 11
1 2 2 3 3 3 3 4 4 4 3 3 3 3 4 3 3 4 4 5 5 6 6 7 7 8 7 8 8 8 8 8 8 9 9 9 10 10 10 11 11 12 12
2 3 3 4 4 4 4 4 3 3 3 4 4 5 4 4 4 5 5 6 6 7 7 7 8 8 8 9 9 9 9 9 9 9 10 10 11 11 11 12 12 13 14
4 4 5 4 4 5 4 4 4 4 4 5 5 5 5 5 5 6 6 7 7 8 9 8 8 9 9 10 10 10 9 9 10 10 11 11 12 12 12 12 13 14 14
6 6 6 5 5 5 5 5 5 5 5 5 6 5 6 6 6 7 7 7 8 9 9 9 9 10 10 11 11 11 11 11 11 12 12 13 13 14 14 14 14 14 15
8 8 7 7 7 7 7 7 6 6 6 6 6 6 6 6 7 7 8 8 9 9 9 10 10 11 11 12 12 12 12 12 13 13 14 14 15 15 15 15 16 16 16
10 10 9 9 9 8 8 8 8 7 7 7 8 7 7 7 7 8 8 9 9 10 10 11 11 12 12 12 12 12 12 13 13 14 14 15 15 15 15 16 16 17 18
11 11 11 11 10 9 9 9 9 9 9 9 9 9 9 9 9 9 9 10 10 11 11 12 13 14 14 13 13 13 13 13 14 14 15 16 16 16 17 17 17 18 19
12 12 12 12 11 10 10 10 10 10 10 10 10 10 10 10 10 10 11 11 11 12 12 13 13 14 15 15 14 15 15 15 15 16 16 17 17 17 18 18 18 18 19
12 13 13 12 12 12 11 12 12 12 12 11 11 10 10 10 11 11 11 12 12 13 14 14 15 15 16 16 16 16 16 16 16 17 18 18 18 18 19 19 18 18 19
14 14 13 13 13 13 13 13 13 13 13 13 12 12 12 12 11 11 12 13 14 14 15 16 17 17 17 18 18 18 17 18 18 18 19 19 19 19 19 19 19 20 20
15 15 14 14 14 14 14 14 14 14 14 14 14 14 13 13 12 13 13 14 16 16 17 17 18 19 19 19 20 20 19 20 20 20 20 20 20 20 20 20 20 21 21
16 16 16 16 16 15 16 15 15 16 16 16 16 16 15 14 14 15 15 16 17 18 18 19 19 20 20 21 21 22 21 22 22 22 21 22 22 21 21 21 21 22 22
17 17 17 17 17 17 17 17 17 18 18 17 17 17 17 17 16 17 17 18 19 19 19 20 20 20 21 21 22 22 22 23 23 23 23 23 22 22 22 22 22 22 23
19 19 19 18 19 19 18 18 18 18 18 18 18 18 18 18 19 19 19 20 20 20 20 20 21 21 22 22 24 24 24 24 24 24 24 23 23 23 23 24 24 24 24
20 20 20 20 21 20 20 20 20 19 20 19 19 19 20 20 21 21 21 21 20 21 21 22 22 23 23 23 24 25 25 25 25 25 24 24 24 25 25 25 25 25 25
22 22 22 22 23 23 22 22 22 21 21 21 21 21 21 22 22 21 21 21 22 22 23 24 24 25 25 25 25 26 26 26 26 25 25 25 25 26 26 26 26 26 27
24 24 24 24 25 25 24 23 23 22 22 22 23 23 23 23 23 23 23 23 23 24 24 25 26 26 26 26 26 26 26 27 27 26 26 26 26 27 27 27 27 27 27
27 26 26 26 26 26 26 26 25 24 24 24 24 24 25 25 24 24 24 24 24 25 25 26 26 27 27 26 27 27 28 28 29 28 27 27 28 28 29 28 28 28 28
28 28 28 29 29 28 28 27 26 26 25 25 25 25 25 26 25 25 25 25 26 26 27 27 27 27 27 27 27 28 28 29 29 29 29 29 29 29 29 29 29 29 30
29 29 29 30 31 30 29 29 28 27 27 26 26 26 26 26 26 27 26 26 26 27 27 28 28 28 28 28 28 29 28 29 30 29 29 30 29 29 29 29 30 30 31
30 30 29 29 29 29 29 29 28 28 28 27 26 26 26 26 26 27 27 27 28 28 29 29 29 29 29 29 29 30 30 30 29 29 29 30 31 30 30 30 30 31 31
30 30 30 30 30 30 30 30 30 29 29 28 27 27 27 27 27 28 29 29 29 29 30 29 29 30 31 31 30 30 30 30 30 30 30 30 30 30 30 30 30 31 31

GEFSMW_500_meanwind_288.txt.gz
Wind_Speed
8 8 8 8 8 8 9 9 8 8 7 6 6 6 6 6 6 6 6 6 6 7 6 6 6 7 7 8 8 8 8 8 8 8 8 8 9 9 9 9 10 10 11
7 7 7 7 7 8 9 9 9 8 7 7 6 6 7 6 6 7 6 6 7 7 7 7 7 8 9 9 9 9 9 9 9 8 8 9 9 9 10 10 11 11 11
5 7 6 6 7 7 8 8 8 8 8 7 7 7 7 7 7 6 6 7 8 7 7 7 8 9 9 10 10 10 10 9 9 9 9 9 9 10 10 11 11 12 12
6 6 6 7 7 7 7 7 7 7 8 7 7 7 7 7 7 7 7 7 7 8 8 8 9 10 10 10 10 10 10 10 10 10 10 10 10 11 11 12 12 12 13
6 6 7 7 7 7 7 7 7 7 7 7 7 7 7 7 8 8 7 7 8 8 8 9 10 10 11 12 12 11 11 11 11 11 11 12 12 13 13 13 13 13 14
6 7 8 7 7 7 7 7 7 7 7 7 7 7 7 7 8 8 8 8 8 8 9 10 11 12 12 13 12 12 12 12 11 11 12 12 13 13 14 14 15 15 15
7 8 8 8 8 8 7 7 7 7 7 7 7 7 7 8 8 8 9 9 9 10 10 11 12 13 13 13 13 12 12 12 12 12 12 13 14 14 15 15 16 16 16
8 8 8 9 9 8 8 8 8 7 7 8 8 8 8 8 8 9 10 10 10 10 11 12 13 13 13 14 14 13 13 13 13 13 14 14 14 15 16 16 17 17 17
8 9 9 10 10 9 9 9 9 8 8 8 9 9 9 9 9 10 10 11 11 12 12 12 13 14 14 14 14 14 13 13 13 14 14 15 15 16 17 18 18 18 18
8 10 10 10 11 11 10 10 10 9 9 9 9 9 10 10 10 10 11 11 12 13 13 14 14 14 15 15 15 15 14 14 14 15 15 16 16 17 18 18 18 18 18
9 11 11 11 11 12 11 11 12 11 11 11 10 10 10 11 11 12 12 12 13 14 14 15 16 15 15 15 15 15 15 16 16 16 16 17 18 18 18 18 18 18 19
13 13 13 12 13 13 13 12 12 12 12 12 12 12 12 12 13 13 13 14 14 15 16 17 17 16 16 17 17 16 16 17 17 18 18 19 19 19 19 18 18 18 19
15 15 14 14 14 14 13 13 13 13 13 13 13 13 13 14 14 14 14 15 16 16 17 17 18 18 18 19 18 18 18 18 19 19 19 20 20 20 20 19 19 19 20
17 16 15 16 15 15 14 14 14 13 13 13 14 14 15 15 15 16 16 17 17 17 18 18 18 18 19 19 19 19 19 20 20 20 20 20 21 21 21 21 20 21 21
18 18 18 18 17 16 16 15 15 15 14 15 15 16 17 17 17 17 18 18 19 19 19 19 19 19 20 20 20 20 21 21 21 21 21 21 21 21 22 22 22 22 22
19 19 19 19 18 18 17 17 17 16 17 17 17 17 18 18 18 19 19 20 20 20 20 20 20 20 20 20 21 21 22 22 22 22 22 22 22 22 23 23 23 22 22
21 21 21 21 20 20 19 18 18 18 18 18 19 19 19 19 20 20 21 21 21 21 21 21 21 21 21 21 21 22 22 23 23 23 23 23 23 23 24 24 24 23 23
23 23 22 22 22 21 21 21 20 20 20 20 20 21 21 21 21 21 22 22 22 22 23 23 22 22 22 22 23 23 23 24 24 24 24 24 24 24 24 24 24 25 25
24 24 23 23 23 23 22 22 22 22 22 22 22 22 22 22 21 22 22 23 23 23 24 23 24 24 23 23 23 24 24 25 25 25 25 25 25 25 26 26 26 25 25
26 26 25 24 24 24 24 23 23 23 22 22 23 22 22 23 23 23 23 24 24 24 25 24 25 25 24 24 24 25 25 26 27 27 27 27 27 27 26 27 27 27 27
27 27 27 26 26 25 25 25 24 24 24 23 23 22 22 23 23 23 24 25 25 25 25 25 25 26 26 26 26 27 28 28 28 28 28 28 29 28 27 28 28 28 28
27 27 27 27 28 28 28 27 26 25 24 24 24 24 24 25 25 24 25 26 26 26 26 27 27 27 27 27 28 29 30 30 30 29 29 28 28 28 28 28 28 29 29
29 28 28 29 29 29 28 28 26 26 26 26 26 26 26 27 26 26 27 27 27 28 28 28 28 28 28 29 30 30 30 31 31 30 30 30 30 30 29 29 29 29 29
31 30 30 30 29 29 28 27 28 28 27 27 28 28 28 29 29 29 29 29 29 29 29 29 29 29 29 30 31 31 31 31 31 31 31 31 31 31 31 30 30 30 29
31 31 30 30 30 29 28 28 28 28 29 29 30 30 31 31 31 30 30 30 30 31 31 31 31 30 30 31 31 32 32 32 32 32 31 31 31 31 31 31 30 30 29
31 30 30 30 29 29 29 29 30 30 30 30 31 32 32 32 31 30 30 30 31 32 32 32 32 32 31 31 32 32 32 32 32 32 32 32 32 31 30 29 29 29 29

GEFSMW_500_meanwind_294.txt.gz
Wind_Speed
9 9 10 10 9 10 10 9 9 8 8 7 7 7 7 7 6 6 6 6 5 5 5 5 6 6 6 6 6 6 6 7 6 6 6 7 7 6 6 6 7 7 7
7 7 8 8 8 8 8 8 9 8 7 7 7 7 7 7 7 7 7 6 6 5 5 5 5 6 6 7 7 7 7 7 7 7 8 7 7 7 7 7 7 8 8
6 6 6 7 7 7 7 7 7 7 6 6 7 7 7 6 7 7 7 7 6 6 6 6 6 6 7 7 8 8 8 8 8 8 8 7 7 7 7 8 8 8 9
5 5 5 6 7 7 7 7 7 6 6 6 6 6 5 6 6 6 6 6 7 7 8 8 7 7 8 8 8 8 8 8 8 8 8 8 8 7 7 8 9 10 11
3 4 4 5 6 6 6 7 6 6 5 5 5 6 5 6 6 5 6 6 7 8 9 9 8 8 8 9 9 8 9 8 8 8 8 9 9 9 9 9 10 11 12
3 3 3 3 4 5 5 6 6 6 5 5 5 5 5 6 6 6 5 6 7 8 8 9 8 9 9 9 10 10 10 9 9 9 9 9 9 9 9 10 10 11 12
3 3 3 3 3 4 5 6 5 5 5 5 5 5 5 5 6 6 6 6 7 8 8 9 9 9 9 10 10 10 11 10 10 10 10 10 10 10 11 11 11 12 13
4 3 3 4 3 4 5 6 5 5 5 5 4 5 5 5 5 6 6 7 8 8 9 9 10 10 10 11 11 11 11 11 11 11 10 10 10 11 12 12 13 13 13
5 5 4 3 4 5 5 6 6 5 5 5 5 5 6 6 7 7 8 8 9 9 10 10 11 12 12 12 12 12 12 12 12 12 12 12 12 12 12 13 13 14 14
6 5 5 5 4 5 6 6 6 6 6 6 6 7 7 7 8 8 8 9 10 10 11 11 12 13 13 13 13 13 12 12 12 12 12 13 13 14 14 14 14 15 15
6 6 7 7 6 6 7 7 7 7 7 7 8 8 8 9 9 9 10 10 11 12 13 13 14 14 14 14 14 14 14 14 14 14 14 14 15 15 15 16 16 17 17
6 8 9 9 9 9 8 9 9 9 9 9 10 10 10 11 11 11 11 11 12 13 14 15 15 15 15 15 14 15 15 15 15 15 15 16 16 16 16 17 18 18 18
9 10 10 11 11 11 10 10 10 11 11 11 11 11 12 13 13 12 12 12 13 14 14 15 15 15 16 16 15 16 16 16 16 16 17 17 17 18 18 19 19 20 20
13 12 12 12 11 11 12 12 13 13 13 12 13 13 13 14 14 14 14 14 14 15 15 16 16 16 16 16 17 17 17 17 17 18 18 18 19 20 20 20 21 21 21
14 14 14 13 12 13 14 15 14 14 14 14 14 15 15 15 16 15 15 15 15 16 16 16 17 17 17 17 18 18 18 18 19 19 19 20 20 21 21 22 22 22 22
15 15 15 14 14 15 16 16 16 16 16 16 16 16 16 17 17 16 17 17 17 17 17 17 17 18 18 18 19 19 20 19 20 20 21 21 22 22 22 23 22 23 23
18 18 17 17 17 17 17 18 17 17 17 17 18 18 18 18 17 17 18 18 18 18 19 18 18 19 19 20 20 21 20 21 21 22 22 23 23 23 23 23 23 23 23
19 19 20 20 21 20 19 18 19 19 18 18 19 20 19 18 18 19 19 19 20 20 20 19 20 20 21 21 22 22 22 23 23 24 24 24 25 24 24 24 24 24 24
21 21 22 22 22 22 20 20 20 20 20 20 20 20 20 20 20 20 20 21 22 21 21 21 22 22 23 23 24 24 24 25 24 25 25 25 25 25 25 25 25 25 25
23 22 23 23 23 24 23 22 22 22 21 21 21 22 21 21 21 21 22 23 23 23 22 23 24 24 24 24 25 25 26 26 25 26 25 25 25 26 26 26 26 26 26
25 24 24 24 25 24 24 24 23 23 23 23 23 23 23 23 23 23 23 24 25 24 24 25 25 25 25 25 25 26 26 25 25 26 26 26 26 27 27 27 26 26 27
26 26 26 26 26 26 26 26 26 25 26 25 25 25 25 25 24 24 25 25 26 26 26 26 26 26 26 26 26 27 26 26 26 26 26 26 26 27 27 27 27 27 27
27 27 26 27 27 27 28 28 28 28 28 27 26 27 26 26 26 26 26 27 27 27 27 28 28 27 27 27 27 27 27 26 26 26 26 27 27 27 27 27 27 27 27
28 28 28 28 29 29 29 29 29 29 29 28 28 28 27 27 27 28 29 29 28 29 29 29 29 29 28 28 28 28 27 28 27 27 27 28 28 28 28 27 27 27 27
30 30 30 30 30 30 30 30 30 30 29 29 29 28 29 28 29 29 30 30 30 30 30 29 29 29 28 28 28 28 28 28 28 28 27 28 28 28 28 28 27 27 26
31 32 31 31 31 31 31 31 30 30 30 29 29 29 29 29 30 30 31 31 31 31 30 30 29 28 27 27 28 28 28 28 28 28 28 28 27 28 28 28 27 26 26

GEFSMW_500_meanwind_300.txt.gz
Wind_Speed
7 7 7 7 7 7 6 6 6 6 7 6 6 6 6 6 5 5 5 4 4 5 5 5 5 5 6 6 6 6 6 6 6 6 7 8 8 8 8 9 9 9 9
6 7 6 7 6 6 5 5 5 6 6 6 6 6 5 5 5 5 5 5 5 5 6 6 6 6 6 6 7 7 7 7 7 7 8 8 8 8 9 10 10 10 11
5 5 5 6 6 5 5 4 4 5 4 5 5 5 5 5 5 5 5 5 5 6 6 6 7 7 7 7 8 8 8 8 8 8 8 8 8 9 10 11 11 12 12
4 4 4 5 5 5 5 4 4 4 4 4 4 4 4 5 5 5 5 5 5 6 6 7 7 7 8 8 9 9 9 9 9 9 9 10 10 10 10 11 11 12 13
3 4 3 3 4 4 4 4 4 4 4 4 4 4 5 5 5 5 5 5 6 6 7 7 8 8 8 8 9 10 10 11 11 11 10 11 11 12 12 11 11 12 13
3 3 3 3 3 4 3 3 3 3 3 3 4 4 5 5 5 5 5 6 6 6 7 8 9 9 9 10 10 11 11 11 11 11 11 12 12 13 13 13 13 14 14
4 4 3 2 2 2 2 2 3 3 3 3 4 5 5 5 5 6 6 6 7 7 8 8 9 10 10 11 11 12 12 12 12 12 13 13 13 13 14 14 14 15 15
6 5 4 3 2 2 2 2 3 3 3 4 5 5 6 5 6 7 7 7 8 9 9 9 10 10 11 12 12 13 13 13 14 14 13 14 14 14 14 15 15 15 16
7 6 5 6 4 4 3 3 4 4 4 4 5 6 6 6 7 8 8 8 9 10 10 10 11 12 12 13 14 14 14 14 15 15 15 14 15 15 15 15 15 16 16
9 7 7 6 6 5 4 4 5 5 5 5 5 6 7 7 8 9 9 10 10 11 11 11 13 13 13 14 15 15 15 15 16 16 16 16 15 15 16 17 17 17 17
9 9 8 7 7 7 7 6 7 7 7 7 7 7 8 9 9 10 11 11 11 12 13 13 14 15 15 15 16 16 17 17 17 17 17 17 17 17 18 18 19 19 19
10 10 9 8 8 8 8 8 8 8 9 9 9 9 10 10 11 12 12 13 12 13 14 15 16 16 16 17 17 18 19 18 18 18 18 19 19 19 20 20 20 20 20
11 11 11 10 10 9 9 9 10 10 10 11 11 11 12 12 13 13 14 14 15 15 17 17 17 17 17 18 19 19 20 20 20 20 20 20 20 21 21 21 21 21 22
12 13 13 12 12 11 11 12 12 12 12 12 13 13 14 14 15 15 16 17 17 17 18 18 18 18 18 19 20 20 21 21 21 21 21 22 22 22 22 22 23 23 23
15 15 14 14 14 14 13 13 14 13 13 14 15 16 16 16 16 17 18 18 18 19 19 19 19 19 19 20 21 21 21 21 22 22 23 23 23 23 23 24 24 24 23
16 16 14 14 14 15 15 15 15 15 15 16 16 17 17 18 18 18 19 19 20 20 20 19 20 20 21 22 22 23 22 22 23 23 24 24 24 24 24 24 23 24 24
17 17 16 16 17 17 17 17 17 17 17 18 18 18 19 19 19 20 20 21 21 21 21 22 22 23 23 23 23 24 24 24 24 24 25 25 26 25 25 24 24 24 24
19 18 19 19 19 20 19 19 19 19 19 19 20 20 20 21 21 22 22 23 23 23 23 23 23 24 24 25 25 25 25 25 25 25 26 26 26 26 25 25 24 24 24
22 21 21 21 21 22 22 21 21 22 21 21 22 23 22 22 22 23 23 24 24 24 24 25 25 26 25 26 26 26 26 26 26 26 26 26 26 26 26 26 26 26 25
24 24 23 22 22 23 23 23 23 23 22 23 23 24 25 24 24 24 25 25 26 26 26 26 26 26 27 27 27 26 26 26 26 26 26 27 27 27 27 26 27 27 26
26 26 25 25 24 25 25 25 25 24 24 24 25 25 26 26 26 26 25 25 26 26 27 27 27 28 28 28 27 27 28 27 27 26 26 27 27 27 27 27 27 27 27
28 28 28 28 28 27 26 26 27 27 27 27 27 27 27 28 29 28 27 27 27 28 28 29 29 30 30 29 28 29 28 27 27 27 26 26 27 27 27 27 27 28 27
29 29 30 30 30 30 28 28 29 29 29 28 28 29 29 30 29 29 29 29 29 30 30 31 31 31 30 30 29 29 28 27 27 27 27 27 27 27 27 27 27 27 27
30 31 31 32 32 31 30 30 29 29 29 30 30 31 31 31 31 32 32 32 32 32 31 32 32 31 31 30 30 30 28 28 28 27 27 27 27 27 28 27 27 27 27
30 30 32 33 33 32 31 30 30 30 31 31 32 32 33 33 33 33 33 34 34 34 34 33 33 33 32 31 30 29 28 28 28 28 27 27 28 28 28 27 27 27 28
30 31 31 32 33 33 32 31 31 30 31 32 32 32 33 34 35 34 35 35 35 35 34 34 33 32 32 31 30 29 29 28 28 28 27 28 28 27 27 27 27 27 27

GEFSMW_500_meanwind_306.txt.gz
Wind_Speed
6 6 7 7 6 6 5 5 5 5 5 5 5 5 6 5 5 5 4 5 5 5 4 5 5 4 3 3 3 4 4 5 6 7 7 8 8 8 8 9 9 10 10
5 5 6 6 6 5 5 4 4 4 4 4 5 5 5 5 5 5 5 5 5 5 5 5 5 5 4 4 5 5 6 6 7 7 8 8 8 8 9 9 10 10 11
4 5 5 5 5 5 4 4 3 3 4 4 4 4 5 5 5 5 5 5 5 5 5 5 5 5 5 5 6 6 6 7 8 8 9 9 9 9 9 10 10 11 12
4 5 5 5 5 4 4 4 3 3 3 3 3 4 4 4 4 4 5 5 5 4 4 5 5 5 5 6 6 7 7 8 8 9 9 10 9 9 10 10 11 11 12
4 4 5 5 4 4 4 3 3 2 1 2 3 3 4 4 4 4 5 5 5 5 5 5 6 6 6 7 7 8 8 9 9 9 10 10 10 10 11 11 11 12 13
5 5 5 5 4 4 4 4 3 3 2 2 2 3 4 4 4 5 6 6 6 6 6 6 7 7 7 8 9 9 10 10 11 11 11 11 11 11 12 12 12 13 14
6 6 6 5 5 5 5 5 5 5 4 3 3 3 4 4 5 5 6 7 7 7 7 7 8 9 9 9 10 11 11 11 11 11 12 13 13 13 13 13 14 14 15
7 7 7 7 7 7 7 6 6 5 4 4 4 4 5 5 6 6 7 7 8 8 8 9 9 10 11 11 11 12 12 12 13 13 13 14 14 14 15 15 15 15 16
9 9 9 8 8 8 8 8 8 7 7 6 6 6 6 6 7 7 8 8 9 9 10 10 10 11 12 12 13 13 13 13 14 15 15 15 15 15 16 16 16 17 17
9 9 9 9 10 10 10 10 10 9 8 7 6 7 7 8 8 8 9 10 11 10 11 12 12 13 14 14 15 14 15 15 16 16 16 16 16 16 16 17 18 18 19
10 10 10 11 11 12 12 11 11 10 10 9 8 8 8 10 9 9 10 11 11 12 12 13 14 14 15 16 16 16 16 16 16 16 17 17 17 17 17 18 19 19 20
11 12 12 13 13 13 13 12 12 11 11 11 11 11 11 11 11 11 11 12 13 13 14 15 16 16 17 17 18 18 18 18 18 18 18 18 18 18 19 19 20 20 20
12 13 13 14 14 14 14 13 13 13 13 13 13 12 12 13 13 14 14 15 16 16 17 17 17 18 19 19 19 19 19 19 19 19 19 19 19 20 20 20 21 21 21
13 13 14 14 15 15 15 15 15 15 15 15 14 14 15 15 16 16 16 17 18 18 19 19 20 20 20 21 20 20 20 20 20 19 20 21 21 21 21 21 21 22 22
14 14 14 15 15 16 16 17 17 17 17 17 17 17 17 18 18 18 18 19 20 20 21 21 21 22 22 22 22 22 21 21 21 21 21 21 22 22 22 22 22 23 23
16 17 17 17 17 18 18 19 18 19 18 19 19 19 19 20 20 21 21 22 22 22 22 22 23 23 24 24 23 23 22 22 22 22 22 23 23 23 23 23 23 24 24
19 18 18 19 19 20 20 21 20 21 21 21 22 22 21 22 23 23 23 24 24 23 23 23 24 24 24 25 24 24 24 24 23 24 24 23 23 24 24 24 24 24 25
21 21 20 20 21 22 22 22 22 23 23 23 24 24 24 25 25 25 25 24 24 24 24 25 25 25 25 25 25 26 25 25 25 25 25 25 25 25 24 24 25 25 25
23 23 22 22 23 23 24 24 24 24 25 25 25 25 25 26 26 26 26 26 26 26 26 26 26 26 25 26 26 26 26 26 26 26 26 26 26 25 25 26 26 26 26
25 25 25 25 26 26 26 26 26 26 26 27 27 27 27 27 28 27 27 27 28 28 27 27 27 26 26 27 27 27 28 28 28 28 28 27 27 27 27 27 26 27 26
27 27 27 27 28 28 28 27 27 28 28 29 29 30 29 29 29 29 29 29 29 29 29 28 28 28 28 28 28 28 29 29 29 29 28 28 27 27 27 27 27 27 27
27 27 28 29 29 29 29 29 29 29 30 30 31 31 31 31 31 31 31 31 30 29 29 29 29 28 29 29 29 29 29 29 29 29 28 28 27 28 28 28 28 28 27
28 28 29 30 30 30 30 31 31 31 31 31 32 32 33 32 32 32 32 31 31 30 29 29 30 29 30 30 30 29 29 29 29 29 28 28 28 28 29 29 28 28 27
29 30 30 31 31 31 31 32 32 32 32 32 33 33 33 33 32 32 32 31 31 31 31 31 31 31 31 31 30 29 29 29 29 29 29 28 28 29 29 29 29 28 27
30 31 31 32 32 32 32 33 33 32 31 31 32 32 33 32 32 32 32 31 31 32 32 32 32 31 31 31 31 30 30 30 30 29 29 28 29 29 29 29 29 28 28
32 32 32 33 33 33 33 33 33 32 32 32 32 32 32 32 32 32 32 32 33 32 32 32 32 32 31 31 31 30 30 30 30 29 29 29 28 29 29 28 28 27 27